Wind_Speed
10 9 8 7 7 5 5 4 2 0 2 4 6 6 4 4 4 4 5 5 6 6 6 6 5 6 6 6 6 6 6 6 6 6 6 6 6 5 5 5 6 6 7 7
12 11 9 8 7 7 6 5 3 2 2 4 6 6 5 5 5 4 4 4 4 4 4 4 4 4 4 4 5 5 5 5 5 5 6 6 6 6 5 5 6 8 8 9
12 10 10 9 8 8 8 6 4 4 5 6 7 5 5 6 5 4 3 3 3 3 3 3 3 3 3 3 4 4 4 4 5 5 5 6 6 6 6 6 7 8 9 10
13 11 11 11 10 10 8 6 7 7 8 8 9 8 7 8 6 5 5 4 3 3 3 2 3 2 2 3 3 4 5 5 5 5 5 5 6 6 7 7 8 9 9 10
13 14 13 13 11 11 9 8 9 10 10 10 10 11 9 10 7 6 5 4 3 3 4 3 5 4 2 2 3 5 6 6 6 6 6 5 6 6 8 9 9 10 10 11
14 15 14 12 12 12 11 11 11 11 12 12 10 11 10 10 8 8 7 6 5 4 5 5 5 5 4 4 4 6 7 8 8 7 6 6 6 7 8 9 9 10 11 11
14 14 14 13 13 14 14 13 13 12 13 13 12 12 10 10 10 9 8 9 9 7 6 6 7 7 8 7 6 7 8 9 8 7 7 7 7 8 8 9 10 10 11 12
15 14 14 14 13 14 14 15 15 14 14 13 13 13 11 11 11 10 11 10 10 9 8 8 8 8 9 9 8 8 8 8 9 9 8 9 9 9 9 10 10 10 11 12
17 15 14 14 14 13 14 16 16 16 16 15 14 13 13 12 12 11 11 10 10 10 9 8 9 9 8 8 9 8 8 9 10 10 10 10 10 10 10 11 11 11 12 12
19 19 17 16 16 16 15 15 16 17 17 16 14 14 13 13 12 12 11 12 11 11 12 11 10 10 9 9 10 9 10 11 12 11 12 11 11 11 11 12 12 13 13 13
19 19 19 19 19 16 16 16 18 18 18 17 17 15 15 14 14 14 13 12 12 13 12 12 11 10 10 10 11 10 11 12 12 12 11 12 12 12 13 13 14 14 14 14
20 20 19 19 18 17 18 18 19 20 19 19 18 17 16 15 15 15 13 13 13 13 12 13 12 12 12 13 12 12 12 13 14 14 13 13 13 14 14 15 16 15 15 15
20 21 21 20 20 20 20 19 20 21 21 21 20 19 19 17 17 17 15 14 14 13 12 12 12 12 12 13 13 14 14 14 14 15 15 15 15 16 17 17 17 17 17 17
23 24 24 23 22 21 21 20 20 21 22 22 21 20 21 20 19 18 17 16 15 14 13 14 14 13 13 14 15 15 15 15 15 15 16 17 17 18 18 18 18 17 18 19
24 25 25 25 24 24 23 22 22 21 21 22 23 22 21 19 20 19 18 17 16 16 15 15 14 14 14 15 16 17 16 16 17 17 18 18 18 19 19 19 18 19 20 21
25 25 25 25 25 25 25 24 23 22 21 22 23 23 21 21 20 19 18 18 18 18 18 17 16 16 16 17 18 18 18 18 19 19 19 19 20 20 21 21 20 21 21 22
26 26 26 26 26 26 27 26 25 25 24 23 24 23 23 22 20 20 20 20 19 20 20 19 19 19 19 18 18 19 18 18 19 20 21 21 21 22 22 22 23 23 23 23
28 27 27 27 27 29 27 27 26 26 25 25 25 23 24 24 22 21 21 21 20 20 21 22 22 22 22 22 21 21 21 21 22 22 22 22 23 23 23 24 25 24 24 24
29 28 28 28 28 28 26 25 26 27 26 26 25 25 26 25 23 21 21 21 21 22 22 23 23 23 24 24 23 24 24 24 24 24 23 23 25 25 25 26 26 25 25 25
30 30 30 29 29 28 26 26 27 27 27 26 26 25 26 26 25 23 22 23 23 24 24 25 25 24 24 24 24 25 25 24 24 24 24 25 26 26 26 26 26 27 27 27
31 31 31 30 30 28 27 27 26 28 27 27 27 26 27 26 25 24 25 26 26 27 26 25 26 25 25 25 25 26 26 25 25 25 26 26 27 27 27 27 28 28 28 28
31 31 31 31 31 29 28 28 28 29 28 28 28 27 27 27 25 25 27 28 28 27 28 26 26 27 27 27 26 27 28 28 27 27 28 28 29 29 29 30 29 29 29 29
32 32 33 33 32 30 30 30 29 29 30 30 28 28 28 27 28 28 28 29 29 28 28 27 28 28 28 28 28 28 29 29 29 29 30 30 30 31 31 31 31 30 30 30
33 32 33 33 32 30 30 30 29 28 28 28 28 28 29 29 28 28 27 27 28 27 27 28 29 29 28 29 29 29 29 29 30 30 31 31 31 31 31 31 31 31 30 30
33 33 34 34 33 31 30 32 32 31 30 28 28 28 30 30 30 30 29 29 29 28 28 28 29 29 29 29 30 30 30 31 31 31 32 32 31 31 31 31 31 30 30 30
33 33 33 34 33 32 31 30 31 31 31 30 29 29 30 32 33 32 31 31 30 30 30 30 30 30 31 31 31 31 31 31 32 32 32 32 31 31 30 30 30 30 30 30
Wind_Direction
203 199 204 212 210 203 206 207 214 118 303 300 319 316 312 314 342 13 12 13 32 32 33 31 37 44 49 50 41 42 41 39 35 31 26 19 19 12 8 7 7 2 356 352
205 204 209 221 214 208 209 209 226 254 276 290 298 299 287 295 313 330 356 2 11 30 33 22 21 40 47 46 38 35 28 24 18 16 13 9 5 0 357 1 358 355 350 347
211 208 218 226 221 216 218 219 245 265 279 275 283 285 293 297 308 315 334 346 342 353 4 6 8 15 21 38 30 23 11 6 3 360 358 355 354 353 350 346 346 345 344 342
214 215 222 228 231 234 238 238 250 257 265 273 280 283 282 287 300 309 310 300 306 329 336 339 335 330 346 8 4 359 350 345 342 338 337 337 338 339 339 338 336 337 338 337
214 216 221 227 234 239 247 246 249 250 258 265 269 273 284 285 298 303 305 288 293 305 308 324 324 310 308 330 341 339 334 329 327 323 320 321 322 326 330 331 328 329 331 332
217 219 224 227 231 235 238 244 249 250 254 255 261 269 276 291 301 298 299 302 293 280 289 286 301 314 313 306 317 321 319 321 319 312 310 311 316 320 324 326 323 321 323 328
220 222 227 227 231 237 238 240 244 248 252 255 261 268 276 283 289 295 292 291 286 284 286 279 286 300 305 299 297 304 310 316 316 304 300 304 312 318 320 318 319 321 325 325
224 224 234 238 239 243 243 242 246 251 255 257 263 272 277 283 284 288 287 289 284 281 288 285 282 296 299 294 294 296 300 307 307 299 292 297 303 309 311 314 316 317 320 320
232 231 232 237 241 243 244 244 248 253 257 260 264 271 274 277 279 289 292 286 291 283 286 289 285 293 295 295 289 286 294 300 301 299 289 292 297 303 308 313 312 313 313 313
234 231 226 231 239 238 243 246 249 250 254 260 268 269 273 281 278 284 286 283 289 289 294 293 297 293 291 294 293 293 297 299 297 294 288 286 294 300 306 309 311 312 311 311
231 234 230 231 239 241 242 245 248 252 255 260 269 270 270 279 277 278 283 282 282 287 291 292 295 296 299 299 294 294 294 297 300 301 299 294 297 297 301 306 308 307 308 309
236 237 234 232 236 240 245 248 248 251 254 258 263 268 268 272 275 275 278 282 281 279 283 288 294 301 302 301 299 298 298 298 298 296 297 302 302 300 300 301 302 304 305 307
239 239 238 234 233 236 238 244 247 251 255 258 261 265 267 271 271 270 274 280 278 275 278 286 293 296 297 298 296 298 296 296 295 293 295 299 301 301 301 301 301 302 300 302
242 241 241 240 239 241 242 243 247 253 256 255 257 261 267 268 268 270 270 269 270 273 280 287 291 289 292 293 294 294 295 294 294 295 296 297 297 299 299 300 300 300 300 300
241 240 240 242 242 240 240 242 245 250 257 257 257 260 263 263 265 270 270 267 270 274 278 284 284 282 285 287 290 290 292 292 292 294 294 294 295 295 296 297 298 298 298 298
239 239 240 240 240 241 243 245 247 247 253 259 260 261 264 262 263 265 268 269 272 276 279 283 285 285 284 286 287 287 289 292 292 294 296 295 295 296 295 295 295 296 296 296
239 241 243 241 240 242 242 244 247 247 251 257 261 263 267 263 263 266 268 270 273 275 277 284 284 284 282 286 288 288 287 291 293 294 294 295 294 295 296 295 293 292 291 291
240 243 245 245 244 243 243 243 245 248 252 257 260 261 264 266 265 266 265 268 269 273 276 279 280 279 277 279 281 285 287 291 292 292 292 290 292 295 296 295 294 292 290 290
240 244 245 247 248 249 246 245 248 250 254 256 258 259 261 263 262 265 269 269 270 273 275 277 278 278 277 277 280 282 283 285 288 291 293 293 295 297 296 296 294 295 293 291
240 244 247 249 250 249 246 246 249 250 251 252 254 258 262 263 262 268 272 271 271 274 274 275 274 278 280 277 281 286 285 286 289 293 294 295 296 296 296 296 296 295 293 291
239 243 247 250 250 251 248 246 247 249 251 252 255 258 262 261 263 266 269 271 272 274 274 276 277 280 281 282 283 287 288 288 289 291 294 296 297 296 296 295 295 295 293 292
240 244 247 250 250 250 249 245 246 249 252 254 257 258 260 260 262 264 267 270 271 273 274 277 280 281 281 282 285 287 287 287 288 289 290 292 294 295 295 295 295 294 293 293
241 245 249 250 250 251 249 247 247 249 251 253 255 256 256 258 262 265 268 271 272 274 275 277 279 280 281 282 284 285 285 286 288 289 289 290 292 293 294 294 294 294 293 292
244 246 251 251 251 251 250 248 250 252 254 256 254 256 257 261 264 267 270 273 275 274 275 277 279 280 282 284 285 284 285 286 288 289 290 290 292 293 293 293 292 291 291 291
247 249 250 252 253 250 251 251 253 254 254 257 258 260 262 264 266 269 271 273 275 276 276 277 278 279 282 284 285 285 284 285 286 287 288 290 292 293 293 292 291 290 290 291
249 250 250 252 252 252 254 254 254 254 255 256 259 262 264 265 267 268 270 272 272 274 276 275 276 278 280 282 283 283 283 284 285 286 287 288 290 291 292 291 290 290 291 292
Height
5907 5910 5910 5911 5912 5912 5913 5914 5913 5914 5915 5915 5915 5915 5915 5915 5914 5914 5913 5912 5912 5912 5911 5910 5909 5908 5907 5906 5906 5905 5905 5904 5903 5903 5902 5901 5901 5900 5899 5898 5897 5896 5895 5894
5906 5907 5909 5910 5910 5910 5911 5912 5912 5913 5913 5914 5914 5914 5914 5913 5913 5913 5912 5912 5911 5911 5910 5910 5909 5908 5907 5906 5905 5905 5904 5904 5903 5903 5902 5901 5900 5899 5899 5898 5896 5895 5894 5892
5903 5906 5906 5907 5908 5908 5909 5910 5911 5911 5911 5912 5913 5913 5913 5912 5912 5912 5911 5911 5911 5910 5909 5909 5909 5908 5906 5905 5905 5905 5905 5904 5903 5903 5902 5901 5900 5899 5898 5897 5896 5894 5893 5891
5900 5902 5903 5904 5906 5907 5907 5908 5909 5909 5910 5910 5911 5911 5911 5910 5911 5910 5910 5910 5909 5909 5908 5908 5908 5907 5906 5905 5905 5905 5904 5904 5903 5902 5901 5900 5899 5898 5896 5895 5894 5893 5891 5890
5898 5900 5901 5902 5904 5904 5905 5906 5907 5908 5908 5908 5909 5909 5909 5907 5908 5908 5908 5908 5907 5907 5907 5907 5907 5906 5905 5904 5904 5903 5903 5902 5901 5900 5899 5898 5897 5896 5895 5894 5892 5891 5890 5888
5895 5896 5898 5900 5901 5902 5904 5905 5905 5905 5906 5906 5907 5906 5907 5906 5905 5906 5906 5905 5905 5906 5906 5906 5905 5904 5903 5902 5902 5902 5901 5900 5899 5898 5897 5896 5895 5894 5893 5892 5890 5889 5887 5886
5892 5893 5895 5897 5898 5900 5901 5902 5903 5903 5903 5904 5904 5903 5904 5904 5903 5903 5904 5903 5903 5904 5903 5903 5903 5902 5901 5900 5899 5899 5899 5898 5896 5895 5894 5894 5893 5892 5891 5890 5888 5887 5885 5883
5888 5890 5892 5894 5896 5897 5898 5899 5901 5901 5900 5901 5900 5900 5902 5901 5901 5900 5900 5900 5901 5901 5900 5900 5900 5899 5899 5897 5896 5897 5896 5895 5894 5893 5892 5891 5890 5890 5888 5887 5886 5884 5883 5881
5884 5887 5889 5890 5892 5894 5895 5895 5897 5897 5897 5897 5897 5898 5898 5897 5897 5897 5897 5897 5897 5897 5897 5897 5897 5896 5895 5894 5893 5893 5892 5892 5891 5889 5889 5888 5887 5886 5885 5884 5882 5881 5880 5878
5880 5882 5885 5886 5888 5889 5891 5892 5893 5893 5893 5893 5894 5895 5895 5895 5894 5894 5894 5894 5893 5894 5894 5893 5893 5892 5892 5891 5891 5890 5890 5889 5888 5887 5885 5885 5884 5883 5882 5881 5879 5878 5876 5875
5875 5878 5880 5882 5883 5885 5887 5888 5888 5889 5890 5890 5890 5893 5893 5892 5891 5890 5890 5890 5891 5891 5891 5890 5890 5890 5889 5890 5889 5888 5887 5886 5885 5883 5882 5882 5880 5879 5879 5878 5876 5874 5872 5870
5870 5873 5874 5877 5879 5880 5882 5883 5884 5885 5886 5886 5887 5890 5888 5888 5888 5887 5887 5886 5888 5888 5888 5888 5887 5887 5886 5886 5886 5885 5884 5883 5882 5881 5880 5878 5877 5875 5875 5873 5872 5870 5868 5866
5866 5868 5870 5872 5876 5876 5876 5877 5879 5880 5881 5881 5882 5886 5884 5884 5884 5884 5884 5884 5884 5884 5885 5885 5884 5884 5884 5883 5882 5882 5880 5879 5878 5877 5875 5874 5873 5872 5870 5869 5867 5865 5864 5862
5861 5862 5865 5867 5869 5870 5871 5872 5873 5875 5875 5876 5877 5879 5879 5880 5880 5880 5880 5880 5881 5881 5881 5881 5881 5881 5880 5879 5878 5877 5876 5875 5874 5872 5871 5870 5869 5867 5866 5864 5862 5861 5859 5857
5854 5856 5859 5861 5863 5864 5866 5867 5868 5869 5870 5871 5872 5873 5874 5875 5875 5876 5875 5876 5876 5876 5876 5877 5876 5876 5875 5875 5874 5873 5872 5871 5870 5868 5867 5865 5864 5862 5860 5859 5857 5855 5854 5852
5848 5850 5853 5855 5857 5859 5860 5862 5863 5864 5865 5865 5866 5868 5869 5869 5870 5871 5870 5871 5872 5872 5871 5872 5871 5871 5870 5870 5869 5868 5867 5865 5864 5863 5861 5860 5858 5856 5855 5853 5851 5850 5848 5846
5842 5844 5847 5849 5851 5852 5854 5857 5858 5859 5859 5860 5861 5863 5863 5864 5865 5866 5866 5866 5866 5866 5866 5866 5866 5865 5864 5864 5863 5862 5861 5860 5859 5857 5855 5854 5852 5850 5848 5847 5845 5843 5841 5840
5836 5838 5840 5842 5845 5846 5850 5851 5852 5852 5853 5854 5855 5856 5858 5859 5859 5860 5860 5860 5860 5860 5861 5860 5860 5859 5859 5858 5857 5856 5855 5854 5853 5851 5849 5848 5846 5844 5842 5840 5838 5835 5834 5833
5830 5832 5834 5836 5837 5839 5842 5844 5845 5846 5847 5848 5849 5850 5851 5852 5853 5853 5853 5854 5854 5855 5855 5854 5854 5853 5852 5851 5850 5850 5849 5848 5846 5845 5844 5841 5839 5837 5835 5833 5831 5829 5827 5825
5824 5825 5827 5828 5830 5832 5836 5837 5838 5840 5840 5841 5842 5844 5844 5845 5847 5848 5848 5848 5848 5848 5848 5848 5847 5847 5845 5845 5844 5843 5842 5840 5839 5838 5837 5835 5833 5830 5828 5826 5824 5821 5820 5818
5817 5818 5820 5821 5823 5825 5828 5830 5831 5833 5835 5835 5836 5838 5839 5839 5840 5840 5841 5841 5842 5842 5841 5840 5840 5839 5839 5838 5838 5837 5835 5834 5832 5831 5830 5827 5825 5822 5820 5818 5816 5814 5812 5810
5809 5811 5812 5814 5816 5820 5821 5822 5824 5825 5826 5827 5829 5830 5831 5832 5832 5833 5833 5834 5834 5834 5833 5833 5833 5832 5832 5831 5830 5829 5828 5826 5824 5823 5822 5819 5817 5814 5812 5810 5808 5806 5804 5801
5801 5804 5805 5807 5810 5811 5812 5814 5815 5816 5818 5820 5821 5822 5823 5825 5826 5826 5826 5826 5826 5826 5826 5825 5825 5825 5824 5823 5822 5821 5820 5818 5817 5815 5813 5811 5809 5806 5804 5802 5800 5797 5795 5793
5793 5795 5796 5798 5800 5803 5804 5806 5807 5808 5810 5811 5813 5815 5816 5817 5818 5818 5819 5819 5818 5818 5818 5817 5817 5816 5815 5815 5813 5812 5811 5809 5808 5806 5805 5802 5800 5798 5796 5793 5791 5788 5786 5784
5785 5787 5788 5790 5792 5794 5796 5798 5800 5801 5803 5804 5805 5806 5807 5808 5809 5810 5811 5811 5810 5810 5809 5809 5808 5807 5806 5806 5804 5803 5801 5800 5799 5797 5795 5793 5791 5789 5787 5784 5782 5780 5777 5775
5777 5779 5780 5782 5784 5786 5788 5790 5791 5793 5795 5796 5797 5797 5798 5799 5801 5801 5802 5802 5801 5801 5800 5800 5799 5799 5798 5797 5796 5794 5793 5791 5790 5788 5786 5784 5782 5780 5778 5775 5773 5770 5768 5766